Location: Huntsville
(41.2590°N, 111.7678°W)
Time: 21:10:54
(UTC+00:00)

Explorer 7 - Pass Details

Date: 20 June 2021
Orbit: 484 x 676 km, 50.3° (Epoch: 30 July)

Event Time Altitude Azimuth Distance (km) Brightness Sun altitude
Rises 09:37:42 0° 303° (WNW) 2,957 10.6 -18.7°
Reaches altitude 10° 09:40:07 10° 306° (NW) 2,019 9.7 -18.5°
Maximum altitude 09:44:44 67° 29° (NNE) 658 7.3 -18.0°
Drops below altitude 10° 09:49:04 10° 113° (ESE) 1,891 9.7 -17.6°
Sets 09:51:16 0° 116° (ESE) 2,753 10.5 -17.4°
